This demonstration page uses our WeatherBlox Daily Observations layout. Learn more.

Left ArrowRight Arrow

Hourly Observations for March 30, 2023

Temp ( °F °C ) Dew Point ( °F °C ) Humidity (%) Winds ( mph kmh ) Pressure ( in mb ) Visibility ( mi km ) Precip ( " mm )
12:51 am 00:51 Clear 59 15 15 -9.4 18 18 NNE 9 15 29.70 1006 10 16 0.00 0.00
1:51 am 01:51 Clear 56 13.3 15 -9.4 20 20 Calm 29.68 1005 10 16 0.00 0.00
2:51 am 02:51 Clear 52 11.1 16 -8.9 24 24 NNE 6 9 29.67 1005 10 16 0.00 0.00
3:51 am 03:51 Clear 49 9.4 16 -8.9 26 26 VRB 5 7 29.67 1005 10 16 0.00 0.00
4:51 am 04:51 Clear 54 12.2 16 -8.9 22 22 NE 12 19 29.66 1004 10 16 0.00 0.00
5:51 am 05:51 Clear 51 10.6 18 -7.8 27 27 NNE 6 9 29.68 1005 10 16 0.00 0.00
6:51 am 06:51 Sunny 56 13.3 20 -6.7 24 24 E 6 9 29.71 1006 10 16 0.00 0.00
7:51 am 07:51 Sunny 62 16.7 23 -5 22 22 Calm 29.73 1007 10 16 0.00 0.00
8:51 am 08:51 Sunny 64 17.8 24 -4.4 22 22 W 9 15 29.72 1007 10 16 0.00 0.00
9:31 am 09:31 Sunny 64 17.8 26 -3.3 23 23 S 22 35 29.72 1006 10 16 0.00 0.00
9:51 am 09:51 Sunny 65 18.3 26 -3.3 23 23 S 16 26 29.72 1007 10 16 0.00 0.00
10:51 am 10:51 Sunny 68 20 24 -4.4 19 19 S 26 43 29.71 1006 10 16 0.00 0.00
11:51 am 11:51 Sunny 70 21.1 22 -5.6 16 16 S 24 39 29.70 1006 10 16 0.00 0.00
12:51 pm 12:51 Sunny 71 21.7 24 -4.4 17 17 WSW 20 31 29.68 1005 10 16 0.00 0.00
1:09 pm 13:09 Sunny 66 18.9 36 2.2 33 33 WNW 28 44 29.68 1005 10 16 0.00 0.00
1:51 pm 13:51 Sunny 64 17.8 36 2.2 35 35 NW 30 48 29.71 1006 10 16 0.00 0.00
2:51 pm 14:51 Sunny 60 15.6 35 1.7 39 39 NW 30 48 29.73 1007 10 16 0.00 0.00
3:51 pm 15:51 Sunny 59 15 33 0.6 37 37 NW 29 46 29.75 1007 10 16 0.00 0.00
4:51 pm 16:51 Sunny 57 13.9 31 -0.6 37 37 NW 24 39 29.75 1008 10 16 0.00 0.00
5:51 pm 17:51 Mostly Cloudy 56 13.3 31 -0.6 38 38 NW 24 39 29.77 1008 10 16 0.00 0.00
6:51 pm 18:51 Mostly Cloudy 53 11.7 31 -0.6 43 43 NW 18 30 29.77 1008 10 16 0.00 0.00
7:51 pm 19:51 Partly Cloudy 52 11.1 29 -1.7 41 41 NW 22 35 29.78 1008 10 16 0.00 0.00
8:51 pm 20:51 Clear 51 10.6 29 -1.7 42 42 NW 22 35 29.81 1009 10 16 0.00 0.00
9:51 pm 21:51 Clear 50 10 28 -2.2 42 42 WNW 16 26 29.85 1011 10 16 0.00 0.00
10:51 pm 22:51 Clear 49 9.4 28 -2.2 44 44 NW 10 17 29.87 1012 10 16 0.00 0.00
11:51 pm 23:51 Cloudy 49 9.4 29 -1.7 46 46 WNW 14 22 29.90 1012 10 16 0.00 0.00

Powered by AerisWeather